STARLINK-36428, 67362

Orbit data source: Space-Track

STARLINK-36428, 67362 is a payload satellite owned by SpaceX/Seattle (US) in LEO that was launched on Fri, 09 Jan 2026 UTC via an FALCON 9 launch vehicle from the Air Force Eastern Test Range (AFETR). Payload-class satellites include a variety of spacecraft equipped with specific instruments for various scientific and technological missions. These include communications satellites like Starlink; space stations such as the ISS; scientific satellites like the Hubble; Earth observation satellites from companies like Planet Labs, Umbra, and HawkEye 360; GPS; miniature CubeSats for education and research; and military/defense satellites.

Loading next visibility...
Identifier
67362, 2026-003AE
Orbit
LEO
Country
Flag of USUS
Related business
Manufacturer
SpaceX/Seattle
Mission
Operational Commercial Communications
Bus & Motor
STARLINK V2MO, Unknown motor
Mass
575 kg wet, ~530 kg dry
Launch date (UTC)
2026-01-09 (5 months ago)
Launch vehicle
FALCON 9
Launch site
Air Force Eastern Test Range (AFETR)
Object type
Payload
Rocket body
Debris
Shape & HBR
Box + 2 Pan, 17.7 m
Radar Cross Section
36.964 m², Large (>1 m²)

Expand to show TLE details & history
Last TLE update: 1 day ago

TLE from 1 day ago
0 STARLINK-36428
1 67362U 26003AE  26170.61744989  .00018827  00000-0  69197-3 0  9990
2 67362  43.0044  11.3257 0001374 264.3564  95.7131 15.27579097 24414
Epoch: 2026-06-19T14:49Z
TLE epoch observation values (Epoch: 2026-06-19T14:49:07.670Z)
Latitude
-0.00002°
Longitude
-118.80013°
Altitude
482.922 km
Speed
7.626 km/s
True Right ascension
00h 45m 18s
True Declination
0° 00' 00"
Sunlit
Object was in daylight at epoch
Visualization orbit readout
Latitude
Unknown
Longitude
Unknown
Altitude
Unknown
Speed
Unknown
Apparent Right ascension
Unknown
Apparent Declination
Unknown
Sunlit
N/A
Visualization observer readout
Local Sidereal Time
10:18:42
Azimuth
Unknown
Elevation
Unknown
Doppler factor
Unknown
Orbital elements
Apogee altitude
485.939 km
Perigee altitude
484.053 km
Semi-major axis
6,863.133 km
Eccentricity
0.00014
Inclination
43.0044°
RAAN
11.3257°
Arg. of periapsis
264.3564°
True anomaly
95.72877°
Mean anomaly
95.7131°
Eccentric anomaly
95.72093°
Mean motion
3.81733 °/min
Orbital period
94.31 mins
BSTAR
0.00069197
Loading maneuver chart data...
Computing Atmospheric mass density...
Loading historical data...
Loading historical data...
Loading historical data...
Loading historical data...
Loading historical data...
Loading historical data...
Loading historical data...

Documentation

Showing up to 5 results
|